• In Uzbekistan
  • List of Countries
  • For 7 days
  • Water Temperature
  • Satellite Maps
  • Weather Map
  • Weather Widgets
  • user-avatar
    Login

    Hourly Weather Campinas

    Today, 22 September, Saturday

    Time Temperature Precipitation Wind Pressure Humidity
    00:00 +20°C° 0 mm 2 mps 702 mmHg 81%
    01:00 +19°C° 0 mm 2 mps 702 mmHg 82%
    02:00 +19°C° 0 mm 2 mps 702 mmHg 83%
    03:00 +19°C° 0 mm 2 mps 701 mmHg 84%
    04:00 +18°C° 0 mm 2 mps 701 mmHg 84%
    05:00 +18°C° 0 mm 2 mps 701 mmHg 84%
    06:00 +19°C° 0 mm 1 mps 701 mmHg 84%
    07:00 +21°C° 0 mm 1 mps 702 mmHg 74%
    08:00 +23°C° 0 mm 1 mps 703 mmHg 64%
    09:00 +26°C° 0 mm 1 mps 703 mmHg 53%
    10:00 +28°C° 0 mm 1 mps 703 mmHg 46%
    11:00 +30°C° 0 mm 1 mps 703 mmHg 39%
    12:00 +32°C° 0 mm 1 mps 703 mmHg 32%
    13:00 +32°C° 0 mm 1 mps 703 mmHg 30%
    14:00 +32°C° 0 mm 1 mps 702 mmHg 28%
    15:00 +33°C° 0 mm 1 mps 702 mmHg 27%
    16:00 +31°C° 0 mm 1 mps 701 mmHg 32%
    17:00 +29°C° 0 mm 1 mps 701 mmHg 37%
    18:00 +27°C° 0 mm 1 mps 701 mmHg 43%
    19:00 +26°C° 0 mm 2 mps 701 mmHg 50%
    20:00 +25°C° 0 mm 3 mps 701 mmHg 58%
    21:00 +22°C° 0 mm 3 mps 702 mmHg 66%
    22:00 +22°C° 0 mm 3 mps 702 mmHg 69%
    23:00 +21°C° 0 mm 3 mps 702 mmHg 72%

    Tomorrow, 23 September, Sunday

    Time Temperature Precipitation Wind Pressure Humidity
    00:00 +21°C° 0 mm 2 mps 702 mmHg 75%
    01:00 +20°C° 0 mm 2 mps 702 mmHg 75%
    02:00 +20°C° 0 mm 2 mps 701 mmHg 74%
    03:00 +20°C° 0 mm 2 mps 701 mmHg 74%
    04:00 +20°C° 0 mm 2 mps 701 mmHg 74%
    05:00 +19°C° 0 mm 2 mps 701 mmHg 73%
    06:00 +19°C° 0 mm 2 mps 701 mmHg 73%
    07:00 +23°C° 0 mm 2 mps 702 mmHg 66%
    08:00 +25°C° 0 mm 2 mps 703 mmHg 60%
    09:00 +27°C° 0 mm 2 mps 704 mmHg 53%
    10:00 +29°C° 0 mm 2 mps 704 mmHg 47%
    11:00 +31°C° 0 mm 2 mps 704 mmHg 40%
    12:00 +33°C° 0 mm 1 mps 704 mmHg 34%
    13:00 +33°C° 0 mm 1 mps 703 mmHg 32%
    14:00 +33°C° 0 mm 1 mps 703 mmHg 29%
    15:00 +34°C° 0 mm 1 mps 702 mmHg 27%
    16:00 +32°C° 0 mm 1 mps 702 mmHg 31%
    17:00 +30°C° 0 mm 1 mps 702 mmHg 36%
    18:00 +28°C° 0 mm 1 mps 701 mmHg 40%
    19:00 +27°C° 0 mm 1 mps 702 mmHg 43%
    20:00 +26°C° 0 mm 1 mps 702 mmHg 46%
    21:00 +25°C° 0 mm 2 mps 702 mmHg 49%
    22:00 +24°C° 0 mm 2 mps 702 mmHg 52%
    23:00 +24°C° 0 mm 2 mps 702 mmHg 56%

    Day after tomorrow, 24 September, Monday

    Time Temperature Precipitation Wind Pressure Humidity
    00:00 +23°C° 0 mm 2 mps 702 mmHg 60%
    01:00 +23°C° 0 mm 2 mps 701 mmHg 60%
    02:00 +23°C° 0 mm 2 mps 701 mmHg 61%
    03:00 +22°C° 0 mm 1 mps 701 mmHg 61%
    04:00 +22°C° 0 mm 1 mps 701 mmHg 61%
    05:00 +22°C° 0 mm 1 mps 701 mmHg 62%
    06:00 +21°C° 0 mm 1 mps 701 mmHg 62%
    07:00 +24°C° 0 mm 2 mps 702 mmHg 57%
    08:00 +26°C° 0 mm 2 mps 703 mmHg 51%
    09:00 +29°C° 0 mm 2 mps 703 mmHg 46%
    10:00 +30°C° 0 mm 2 mps 703 mmHg 41%
    11:00 +32°C° 0 mm 1 mps 703 mmHg 35%
    12:00 +34°C° 0 mm 1 mps 703 mmHg 30%
    13:00 +34°C° 0 mm 1 mps 703 mmHg 29%
    14:00 +34°C° 0 mm 1 mps 702 mmHg 27%
    15:00 +35°C° 0 mm 2 mps 702 mmHg 26%
    16:00 +33°C° 0 mm 1 mps 701 mmHg 30%
    17:00 +31°C° 0 mm 1 mps 701 mmHg 34%
    18:00 +29°C° 0 mm 1 mps 701 mmHg 39%
    19:00 +28°C° 0 mm 2 mps 701 mmHg 40%
    20:00 +27°C° 0 mm 2 mps 702 mmHg 42%
    21:00 +26°C° 0 mm 2 mps 702 mmHg 44%
    22:00 +26°C° 0 mm 2 mps 702 mmHg 46%
    23:00 +25°C° 0 mm 2 mps 702 mmHg 49%

    25 September, Tuesday

    Time Temperature Precipitation Wind Pressure Humidity
    00:00 +24°C° 0 mm 3 mps 702 mmHg 52%
    01:00 +24°C° 0 mm 2 mps 701 mmHg 53%
    02:00 +24°C° 0 mm 2 mps 701 mmHg 55%
    03:00 +23°C° 0 mm 2 mps 700 mmHg 56%
    04:00 +23°C° 0 mm 2 mps 700 mmHg 57%
    05:00 +23°C° 0 mm 2 mps 701 mmHg 58%
    06:00 +22°C° 0 mm 1 mps 701 mmHg 59%
    07:00 +25°C° 0 mm 2 mps 701 mmHg 53%
    08:00 +27°C° 0 mm 2 mps 702 mmHg 48%
    09:00 +29°C° 0 mm 2 mps 703 mmHg 43%
    10:00 +31°C° 0 mm 2 mps 703 mmHg 39%
    11:00 +32°C° 0 mm 2 mps 703 mmHg 35%
    12:00 +35°C° 0 mm 2 mps 703 mmHg 30%
    13:00 +35°C° 0 mm 2 mps 702 mmHg 29%
    14:00 +35°C° 0 mm 1 mps 701 mmHg 28%
    15:00 +35°C° 0 mm 1 mps 701 mmHg 27%
    16:00 +33°C° 0 mm 1 mps 701 mmHg 31%
    17:00 +32°C° 0 mm 1 mps 700 mmHg 34%
    18:00 +30°C° 0 mm 1 mps 700 mmHg 38%
    19:00 +29°C° 0 mm 1 mps 701 mmHg 41%
    20:00 +28°C° 0 mm 2 mps 701 mmHg 44%
    21:00 +28°C° 0 mm 3 mps 701 mmHg 46%
    22:00 +27°C° 0 mm 3 mps 701 mmHg 49%
    23:00 +26°C° 0 mm 2 mps 701 mmHg 51%

    26 September, Wednesday

    Time Temperature Precipitation Wind Pressure Humidity
    00:00 +25°C° 0 mm 2 mps 701 mmHg 54%
    01:00 +25°C° 0 mm 2 mps 700 mmHg 53%
    02:00 +25°C° 0 mm 2 mps 699 mmHg 52%
    03:00 +24°C° 0 mm 2 mps 699 mmHg 51%
    04:00 +24°C° 0 mm 3 mps 699 mmHg 53%
    05:00 +24°C° 0 mm 3 mps 699 mmHg 54%
    06:00 +22°C° 0 mm 3 mps 699 mmHg 56%
    07:00 +25°C° 0 mm 4 mps 700 mmHg 51%
    08:00 +28°C° 0 mm 4 mps 701 mmHg 47%
    09:00 +30°C° 0 mm 5 mps 701 mmHg 43%
    10:00 +32°C° 0 mm 5 mps 701 mmHg 38%
    11:00 +34°C° 0 mm 5 mps 701 mmHg 34%
    12:00 +36°C° 0 mm 5 mps 701 mmHg 30%
    13:00 +35°C° 0 mm 4 mps 700 mmHg 32%
    14:00 +34°C° 0 mm 4 mps 700 mmHg 34%
    15:00 +34°C° 0 mm 3 mps 699 mmHg 36%
    16:00 +31°C° 0.2 mm 3 mps 699 mmHg 44%
    17:00 +28°C° 0.2 mm 3 mps 699 mmHg 53%
    18:00 +26°C° 0.2 mm 3 mps 699 mmHg 61%
    19:00 +26°C° 0 mm 2 mps 699 mmHg 64%
    20:00 +25°C° 0 mm 2 mps 699 mmHg 66%
    21:00 +25°C° 0 mm 2 mps 699 mmHg 69%
    22:00 +24°C° 0.9 mm 2 mps 699 mmHg 72%
    23:00 +24°C° 0.9 mm 2 mps 700 mmHg 76%

    27 September, Thursday

    Time Temperature Precipitation Wind Pressure Humidity
    00:00 +23°C° 0.9 mm 2 mps 700 mmHg 79%
    01:00 +23°C° 1.8 mm 2 mps 699 mmHg 82%
    02:00 +21°C° 1.8 mm 2 mps 699 mmHg 85%
    03:00 +22°C° 1.8 mm 1 mps 699 mmHg 88%
    04:00 +22°C° 0.5 mm 1 mps 699 mmHg 88%
    05:00 +22°C° 0.5 mm 1 mps 700 mmHg 88%
    06:00 +22°C° 0.5 mm 1 mps 700 mmHg 89%
    07:00 +23°C° 0 mm 1 mps 700 mmHg 84%
    08:00 +24°C° 0 mm 1 mps 701 mmHg 79%
    09:00 +25°C° 0 mm 1 mps 701 mmHg 75%
    10:00 +27°C° 0.1 mm 1 mps 701 mmHg 67%
    11:00 +28°C° 0.1 mm 1 mps 701 mmHg 60%
    12:00 +30°C° 0.1 mm 1 mps 701 mmHg 53%
    13:00 +30°C° 0 mm 1 mps 701 mmHg 51%
    14:00 +31°C° 0 mm 2 mps 700 mmHg 49%
    15:00 +31°C° 0 mm 2 mps 700 mmHg 47%
    16:00 +30°C° 0 mm 1 mps 700 mmHg 52%
    17:00 +29°C° 0 mm 1 mps 700 mmHg 57%
    18:00 +28°C° 0 mm 1 mps 700 mmHg 61%
    19:00 +27°C° 0 mm 1 mps 700 mmHg 65%
    20:00 +26°C° 0 mm 2 mps 701 mmHg 69%
    21:00 +25°C° 0 mm 3 mps 701 mmHg 73%
    22:00 +24°C° 0 mm 3 mps 701 mmHg 76%
    23:00 +22°C° 0 mm 3 mps 701 mmHg 79%
    Show more